Location: Ostrava
(49.8330°N, 18.2830°E)
Time: 06:35:51
(UTC+02:00)

ISS - Visible Passes

Search period start: 18 May 2021 00:00
Search period end: 28 May 2021 00:00
Orbit: 417 x 422 km, 51.6° (Epoch: 18 May)

Date Brightness Start Highest point End Pass type
(mag) Time Alt. Az. Time Alt. Az. Time Alt. Az.
18 May -3.2 01:20:20 10° WNW 01:22:53 48° WNW 01:22:53 48° WNW visible
18 May -3.6 21:19:09 10° SW 21:22:26 54° SSE 21:25:45 10° ENE visible
18 May -3.4 22:55:54 10° W 22:59:16 65° N 23:02:37 10° ENE visible
19 May -3.7 00:32:52 10° WNW 00:36:15 79° NNE 00:36:28 73° ENE visible
19 May -3.5 22:08:23 10° W 22:11:45 73° NNW 22:15:08 10° ENE visible
19 May -3.5 23:45:24 10° WNW 23:48:45 68° N 23:50:16 29° E visible
20 May -1.6 01:22:16 10° WNW 01:23:12 17° W 01:23:12 17° W visible
20 May -3.7 21:20:54 10° WSW 21:24:16 87° N 21:27:39 10° ENE visible
20 May -3.3 22:57:54 10° WNW 23:01:14 62° N 23:04:10 13° E visible
21 May -2.9 00:34:45 10° WNW 00:37:06 40° W 00:37:06 40° W visible
21 May -3.2 22:10:22 10° W 22:13:43 61° N 22:17:03 10° E visible
21 May -3.9 23:47:17 10° WNW 23:50:40 84° SSW 23:51:03 67° ESE visible
22 May -3.3 21:22:51 10° W 21:26:11 64° N 21:29:33 10° ENE visible
22 May -3.7 22:59:47 10° WNW 23:03:10 79° NNE 23:05:02 24° E visible
23 May -1.7 00:36:45 10° W 00:37:58 19° W 00:37:58 19° W visible
23 May -3.5 22:12:18 10° WNW 22:15:40 68° N 22:19:01 10° E visible
23 May -3.2 23:49:11 10° WNW 23:51:59 42° SW 23:51:59 42° SW visible
24 May -3.3 21:24:47 10° WNW 21:28:08 62° N 21:31:30 10° E visible
24 May -3.8 23:01:40 10° WNW 23:05:00 64° SSW 23:06:01 40° SE visible
25 May -3.8 22:14:10 10° WNW 22:17:32 84° SSW 22:20:04 17° ESE visible
25 May -1.9 23:51:20 10° W 23:53:00 19° WSW 23:53:00 19° WSW visible
26 May -3.6 21:26:40 10° WNW 21:30:03 79° NNE 21:33:25 10° ESE visible
26 May -2.9 23:03:38 10° W 23:06:41 32° SSW 23:07:05 31° SSW visible
27 May -3.3 22:16:02 10° WNW 22:19:17 45° SSW 22:21:12 21° SE visible
